Date String (YYYY-MM-DD hh:mm:ss) UTC,Instrument flags,Ambient pressure (hPa),Sample flow (lpm),Bypass flow (lpm),Sample temperature (°C),Ambient temperature (°C),ASC tube jacket temperature (°C),LED temperature (°C),Box temperature (°C),Sample RH (%),Span deviation,Mass concentration (μg/m³),Mass concentration (μg/m³),Mass concentration (μg/m³)
DateTimeUTC,F1_M11,P_M11,Q1_M11,Q2_M11,T1_M11,T2_M11,T3_M11,T4_M11,T5_M11,U1_M11,ZSPAN_M11,X0_M11,X2_M11,X1_M11
2023-03-09 23:00:00,,0825.2,5.00,0.00,23.2,22.0,00.0,31.9,25.0,05.4,0000.0,0004.39,0000.83,0000.45
2023-03-09 23:01:00,,0825.1,4.99,0.00,23.2,22.0,00.0,31.9,25.0,05.4,0000.0,0004.28,0000.80,0000.45
2023-03-09 23:02:00,,0825.0,5.01,0.00,23.3,22.1,00.0,32.0,25.1,05.5,0000.0,0004.39,0000.81,0000.45
2023-03-09 23:03:00,,0825.1,4.99,0.00,23.3,22.1,00.0,32.0,25.1,05.5,0000.0,0004.46,0000.83,0000.45
2023-03-09 23:04:00,,0825.1,4.99,0.00,23.3,22.1,00.0,32.0,25.1,05.5,0000.0,0004.38,0000.83,0000.45
2023-03-09 23:05:00,,0825.1,5.00,0.00,23.3,22.1,00.0,32.0,25.1,05.5,0000.0,0004.10,0000.78,0000.45
2023-03-09 23:06:00,,0825.1,5.00,0.00,23.3,22.2,00.0,32.0,25.1,05.5,0000.0,0004.88,0000.72,0000.44
2023-03-09 23:07:00,,0825.2,5.00,0.00,23.3,22.2,00.0,32.0,25.1,05.6,0000.0,0004.41,0000.69,0000.44
2023-03-09 23:08:00,,0825.1,5.00,0.00,23.3,22.2,00.0,32.0,25.2,05.5,0000.0,0004.43,0000.70,0000.43
2023-03-09 23:09:00,,0825.1,5.01,0.00,23.3,22.2,00.0,32.0,25.2,05.5,0000.0,0003.99,0000.70,0000.43
2023-03-09 23:10:00,,0825.1,5.00,0.00,23.4,22.2,00.0,32.0,25.2,05.4,0000.0,0004.17,0000.72,0000.43
2023-03-09 23:11:00,,0825.0,5.00,0.00,23.4,22.2,00.0,32.0,25.2,05.4,0000.0,0004.28,0000.79,0000.43
2023-03-09 23:12:00,,0825.0,5.00,0.00,23.4,22.2,00.0,32.0,25.2,05.4,0000.0,0004.33,0000.80,0000.43
2023-03-09 23:13:00,,0825.0,5.00,0.00,23.4,22.3,00.0,32.0,25.2,05.5,0000.0,0004.24,0000.80,0000.43
2023-03-09 23:14:00,,0825.0,5.00,0.00,23.4,22.3,00.0,32.1,25.2,05.8,0000.0,0004.24,0000.79,0000.43
2023-03-09 23:15:00,,0825.0,4.98,0.00,23.4,22.2,00.0,32.1,25.2,05.6,0000.0,0004.21,0000.78,0000.42
2023-03-09 23:16:00,,0825.0,5.00,0.00,23.4,22.2,00.0,32.1,25.1,05.6,0000.0,0004.95,0000.77,0000.43
2023-03-09 23:17:00,,0825.1,5.00,0.00,23.4,22.2,00.0,32.1,25.1,05.5,0000.0,0003.88,0000.78,0000.43
2023-03-09 23:18:00,,0825.1,5.00,0.00,23.4,22.1,00.0,32.1,25.1,05.6,0000.0,0003.30,0000.77,0000.43
2023-03-09 23:19:00,,0825.1,5.00,0.00,23.4,22.1,00.0,32.1,25.1,05.7,0000.0,0004.44,0000.80,0000.43
2023-03-09 23:20:00,,0825.2,4.99,0.00,23.4,22.2,00.0,32.1,25.1,05.7,0000.0,0005.01,0000.82,0000.44
2023-03-09 23:21:00,,0825.1,4.99,0.00,23.3,22.1,00.0,32.1,25.1,05.7,0000.0,0004.60,0000.82,0000.44
2023-03-09 23:22:00,,0825.1,4.97,0.00,23.4,22.1,00.0,32.1,25.1,05.7,0000.0,0004.37,0000.83,0000.44
2023-03-09 23:23:00,,0825.1,5.00,0.00,23.3,22.1,00.0,32.1,25.1,05.6,0000.0,0004.18,0000.78,0000.44
2023-03-09 23:24:00,,0825.1,4.99,0.00,23.3,22.1,00.0,32.1,25.1,05.5,0000.0,0004.18,0000.79,0000.44
2023-03-09 23:25:00,,0825.0,4.99,0.00,23.4,22.0,00.0,32.1,25.1,05.5,0000.0,0004.07,0000.76,0000.45
2023-03-09 23:26:00,,0825.2,4.99,0.00,23.4,22.1,00.0,32.1,25.1,05.6,0000.0,0004.02,0000.73,0000.44
2023-03-09 23:27:00,,0825.1,4.99,0.00,23.4,22.1,00.0,32.1,25.1,05.7,0000.0,0003.60,0000.74,0000.43
2023-03-09 23:28:00,,0825.2,4.98,0.00,23.3,22.0,00.0,32.1,25.1,05.7,0000.0,0003.12,0000.74,0000.43
2023-03-09 23:29:00,,0825.2,5.01,0.00,23.3,22.0,00.0,32.1,25.1,05.7,0000.0,0003.10,0000.76,0000.43
2023-03-09 23:30:00,,0825.2,5.00,0.00,23.3,22.0,00.0,32.1,25.1,05.6,0000.0,0002.32,0000.74,0000.43
2023-03-09 23:31:00,,0825.2,4.97,0.00,23.3,21.9,00.0,32.1,25.1,05.7,0000.0,0002.18,0000.73,0000.42
2023-03-09 23:32:00,,0825.2,4.99,0.00,23.3,21.8,00.0,32.1,25.1,05.6,0000.0,0002.21,0000.71,0000.40
2023-03-09 23:33:00,,0825.2,5.02,0.00,23.3,21.9,00.0,32.1,25.1,05.6,0000.0,0002.32,0000.64,0000.41
2023-03-09 23:34:00,,0825.3,5.00,0.00,23.3,21.9,00.0,32.1,25.1,05.6,0000.0,0002.27,0000.62,0000.40
2023-03-09 23:35:00,,0825.3,5.01,0.00,23.3,22.0,00.0,32.1,25.1,05.6,0000.0,0002.25,0000.60,0000.40
2023-03-09 23:36:00,,0825.3,5.01,0.00,23.3,22.0,00.0,32.1,25.1,05.7,0000.0,0002.23,0000.59,0000.39
2023-03-09 23:37:00,,0825.3,5.00,0.00,23.3,22.0,00.0,32.1,25.1,05.7,0000.0,0002.27,0000.61,0000.39
2023-03-09 23:38:00,,0825.3,5.00,0.00,23.3,22.0,00.0,32.1,25.1,05.7,0000.0,0002.24,0000.61,0000.39
2023-03-09 23:39:00,,0825.3,4.99,0.00,23.3,22.0,00.0,32.1,25.1,05.8,0000.0,0002.23,0000.62,0000.40
2023-03-09 23:40:00,,0825.3,4.99,0.00,23.3,21.9,00.0,32.1,25.0,05.9,0000.0,0002.36,0000.63,0000.40
2023-03-09 23:41:00,,0825.3,5.01,0.00,23.3,21.8,00.0,32.0,25.0,06.0,0000.0,0002.34,0000.62,0000.40
2023-03-09 23:42:00,,0825.3,5.00,0.00,23.3,21.8,00.0,32.0,25.0,05.8,0000.0,0001.95,0000.60,0000.40
2023-03-09 23:43:00,,0825.3,5.01,0.00,23.3,21.8,00.0,32.0,25.0,05.8,0000.0,0001.86,0000.59,0000.40
2023-03-09 23:44:00,,0825.3,4.99,0.00,23.2,21.7,00.0,32.0,25.0,05.7,0000.0,0001.66,0000.59,0000.39
2023-03-09 23:45:00,,0825.4,5.00,0.00,23.2,21.7,00.0,32.0,24.9,05.7,0000.0,0001.69,0000.60,0000.39
2023-03-09 23:46:00,,0825.3,4.99,0.00,23.2,21.7,00.0,32.0,24.9,05.8,0000.0,0001.66,0000.59,0000.39
2023-03-09 23:47:00,,0825.2,5.02,0.00,23.2,21.7,00.0,32.0,24.9,05.8,0000.0,0001.71,0000.60,0000.40
2023-03-09 23:48:00,,0825.1,5.00,0.00,23.2,21.7,00.0,32.0,24.9,05.8,0000.0,0001.72,0000.59,0000.40
2023-03-09 23:49:00,,0825.1,4.99,0.00,23.2,21.6,00.0,32.0,24.9,05.8,0000.0,0001.74,0000.59,0000.40
2023-03-09 23:50:00,,0825.2,5.00,0.00,23.2,21.6,00.0,32.0,24.9,05.8,0000.0,0001.81,0000.61,0000.39
2023-03-09 23:51:00,,0825.1,5.01,0.00,23.2,21.6,00.0,32.0,24.9,05.8,0000.0,0001.92,0000.59,0000.38
2023-03-09 23:52:00,,0825.1,4.99,0.00,23.1,21.5,00.0,32.0,24.9,05.9,0000.0,0002.26,0000.60,0000.38
2023-03-09 23:53:00,,0825.1,5.01,0.00,23.1,21.5,00.0,32.0,24.9,05.8,0000.0,0001.78,0000.63,0000.38
2023-03-09 23:54:00,,0825.0,5.02,0.00,23.1,21.5,00.0,31.9,24.9,05.9,0000.0,0001.84,0000.65,0000.39
2023-03-09 23:55:00,,0825.0,4.98,0.00,23.1,21.5,00.0,31.9,24.9,05.7,0000.0,0001.84,0000.64,0000.39
2023-03-09 23:56:00,,0825.0,4.98,0.00,23.1,21.5,00.0,31.9,24.8,05.7,0000.0,0001.87,0000.64,0000.39
2023-03-09 23:57:00,,0825.1,4.96,0.00,23.1,21.5,00.0,31.9,24.8,05.8,0000.0,0001.88,0000.65,0000.39
2023-03-09 23:58:00,,0825.1,5.02,0.00,23.1,21.5,00.0,31.9,24.9,05.8,0000.0,0001.92,0000.69,0000.38
2023-03-09 23:59:00,,0825.2,4.97,0.00,23.1,21.5,00.0,31.9,24.9,05.7,0000.0,0001.91,0000.70,0000.38
